Location: *
(60.1759°S, 155.0663°W)
Time: 15:54:23
(UTC+00:00)

Cosmos 1655 Rocket - Pass Details

Date: 17 September 2019
Orbit: 971 x 1005 km, 83.0° (Epoch: 14 October)

Event Time Altitude Azimuth Distance (km) Brightness Sun altitude
Rises 14:01:26 0° 194° (SSW) 3,749 7.3 -17.9°
Reaches altitude 10° 14:04:00 10° 196° (SSW) 2,790 6.5 -17.6°
Maximum altitude 14:10:21 68° 276° (W) 1,068 4.0 -16.9°
Drops below altitude 10° 14:16:35 10° 358° (N) 2,741 6.1 -16.2°
Sets 14:19:05 0° 360° (N) 3,679 6.8 -15.9°
